| time (UTC) | temp F | wind direction | speed knots | gust knots | rain 1hr in | rain 24hr in | rain mn in | humidity % | barometer mb |
| 20260510164701 | 69 | 275 | 6.1 | 14.8 | 0.00 | 0.00 | 0.00 | 52 | 1020.1 |
| 20260510164158 | 70 | 281 | 5.2 | 13.0 | 0.00 | 0.00 | 0.00 | 52 | 1020.1 |
| 20260510163653 | 70 | 308 | 5.2 | 9.6 | 0.00 | 0.00 | 0.00 | 52 | 1020.1 |
| 20260510163149 | 70 | 317 | 9.6 | 13.0 | 0.00 | 0.00 | 0.00 | 52 | 1020.2 |
| 20260510162644 | 70 | 275 | 7.8 | 11.3 | 0.00 | 0.00 | 0.00 | 58 | 1020.2 |
| 20260510162141 | 69 | 290 | 8.7 | 12.2 | 0.00 | 0.00 | 0.00 | 55 | 1020.0 |
| 20260510161636 | 70 | 315 | 10.4 | 12.2 | 0.00 | 0.00 | 0.00 | 55 | 1020.0 |
| 20260510161133 | 69 | 303 | 7.8 | 12.2 | 0.00 | 0.00 | 0.00 | 54 | 1020.1 |
| 20260510160630 | 69 | 256 | 3.5 | 7.8 | 0.00 | 0.00 | 0.00 | 55 | 1020.1 |
| 20260510160131 | 70 | 295 | 8.7 | 12.2 | 0.00 | 0.00 | 0.00 | 58 | 1020.1 |
| 20260510155627 | 69 | 296 | 3.5 | 7.8 | 0.00 | 0.00 | 0.00 | 54 | 1019.9 |
| 20260510155123 | 69 | 308 | 7.8 | 13.9 | 0.00 | 0.00 | 0.00 | 54 | 1020.1 |
| 20260510154618 | 69 | 289 | 7.0 | 9.6 | 0.00 | 0.00 | 0.00 | 54 | 1020.2 |
| 20260510154114 | 68 | 297 | 7.8 | 13.9 | 0.00 | 0.00 | 0.00 | 55 | 1020.2 |
| 20260510153610 | 68 | 313 | 8.7 | 11.3 | 0.00 | 0.00 | 0.00 | 56 | 1020.1 |
| 20260510153106 | 69 | 307 | 5.2 | 8.7 | 0.00 | 0.00 | 0.00 | 53 | 1020.2 |
| 20260510152603 | 69 | 253 | 6.1 | 12.2 | 0.00 | 0.00 | 0.00 | 53 | 1020.1 |
| 20260510152059 | 69 | 282 | 4.3 | 9.6 | 0.00 | 0.00 | 0.00 | 53 | 1020.0 |
| 20260510151556 | 68 | 301 | 5.2 | 9.6 | 0.00 | 0.00 | 0.00 | 57 | 1019.9 |
| 20260510151054 | 67 | 261 | 9.6 | 11.3 | 0.00 | 0.00 | 0.00 | 55 | 1020.2 |
| 20260510150553 | 68 | 260 | 6.1 | 13.9 | 0.00 | 0.00 | 0.00 | 55 | 1020.1 |
| 20260510150049 | 67 | 301 | 6.1 | 11.3 | 0.00 | 0.00 | 0.00 | 58 | 1019.9 |
| 20260510145546 | 67 | 327 | 7.8 | 13.0 | 0.00 | 0.00 | 0.00 | 59 | 1020.0 |
| 20260510145043 | 67 | 315 | 7.0 | 11.3 | 0.00 | 0.00 | 0.00 | 56 | 1020.1 |
| 20260510144539 | 67 | 304 | 12.2 | 13.9 | 0.00 | 0.00 | 0.00 | 58 | 1020.0 |
| 20260510144036 | 67 | 293 | 5.2 | 9.6 | 0.00 | 0.00 | 0.00 | 58 | 1020.1 |
| 20260510143531 | 67 | 292 | 6.1 | 9.6 | 0.00 | 0.00 | 0.00 | 59 | 1019.9 |
| 20260510143028 | 66 | 273 | 4.3 | 7.0 | 0.00 | 0.00 | 0.00 | 58 | 1019.8 |
| 20260510142524 | 66 | 315 | 2.6 | 6.1 | 0.00 | 0.00 | 0.00 | 59 | 1019.8 |
| 20260510142021 | 66 | 257 | 2.6 | 5.2 | 0.00 | 0.00 | 0.00 | 61 | 1019.9 |
| 20260510141517 | 66 | 285 | 2.6 | 7.8 | 0.00 | 0.00 | 0.00 | 62 | 1019.9 |
| 20260510141015 | 66 | 312 | 2.6 | 6.1 | 0.00 | 0.00 | 0.00 | 65 | 1019.7 |
| 20260510140512 | 65 | 264 | 5.2 | 7.0 | 0.00 | 0.00 | 0.00 | 61 | 1019.8 |
| 20260510140011 | 65 | 275 | 2.6 | 7.0 | 0.00 | 0.00 | 0.00 | 63 | 1019.9 |
| 20260510135507 | 65 | 317 | 5.2 | 7.8 | 0.00 | 0.00 | 0.00 | 62 | 1019.8 |
| 20260510135004 | 65 | 299 | 6.1 | 7.8 | 0.00 | 0.00 | 0.00 | 64 | 1019.8 |
| 20260510134501 | 65 | 307 | 3.5 | 7.8 | 0.00 | 0.00 | 0.00 | 65 | 1019.9 |
| 20260510133958 | 65 | 295 | 2.6 | 5.2 | 0.00 | 0.00 | 0.00 | 65 | 1019.9 |
| 20260510133453 | 64 | 276 | 3.5 | 6.1 | 0.00 | 0.00 | 0.00 | 66 | 1020.1 |
| 20260510132949 | 64 | 289 | 3.5 | 6.1 | 0.00 | 0.00 | 0.00 | 63 | 1019.8 |
| 20260510132447 | 63 | 289 | 6.1 | 7.8 | 0.00 | 0.00 | 0.00 | 66 | 1020.0 |
| 20260510131943 | 63 | 289 | 3.5 | 5.2 | 0.00 | 0.00 | 0.00 | 71 | 1019.9 |
| 20260510131441 | 62 | 298 | 5.2 | 8.7 | 0.00 | 0.00 | 0.00 | 67 | 1020.0 |
| 20260510130938 | 62 | 297 | 5.2 | 7.0 | 0.00 | 0.00 | 0.00 | 70 | 1019.8 |
| 20260510130435 | 62 | 309 | 5.2 | 7.0 | 0.00 | 0.00 | 0.00 | 71 | 1019.8 |
| 20260510125932 | 61 | 296 | 3.5 | 7.0 | 0.00 | 0.00 | 0.00 | 72 | 1019.6 |
| 20260510125427 | 60 | 313 | 4.3 | 6.1 | 0.00 | 0.00 | 0.00 | 74 | 1019.8 |
| 20260510124925 | 60 | 311 | 2.6 | 6.1 | 0.00 | 0.00 | 0.00 | 74 | 1019.8 |
| 20260510124421 | 59 | 304 | 3.5 | 6.1 | 0.00 | 0.00 | 0.00 | 75 | 1019.8 |
| 20260510123918 | 58 | 319 | 3.5 | 5.2 | 0.00 | 0.00 | 0.00 | 77 | 1019.7 |
| 20260510123413 | 58 | 307 | 4.3 | 7.8 | 0.00 | 0.00 | 0.00 | 79 | 1019.6 |
| 20260510122910 | 58 | 323 | 3.5 | 7.0 | 0.00 | 0.00 | 0.00 | 80 | 1019.6 |
| 20260510122359 | 57 | 314 | 5.2 | 7.8 | 0.00 | 0.00 | 0.00 | 80 | 1019.5 |
| 20260510121856 | 57 | 330 | 3.5 | 7.0 | 0.00 | 0.00 | 0.00 | 79 | 1019.5 |
| 20260510121354 | 57 | 299 | 1.7 | 6.1 | 0.00 | 0.00 | 0.00 | 80 | 1019.5 |
| 20260510120851 | 57 | 304 | 3.5 | 6.1 | 0.00 | 0.00 | 0.00 | 80 | 1019.3 |
| 20260510120348 | 57 | 293 | 1.7 | 7.8 | 0.00 | 0.00 | 0.00 | 80 | 1019.3 |
| 20260510115843 | 57 | 311 | 3.5 | 6.1 | 0.00 | 0.00 | 0.00 | 82 | 1019.3 |
| 20260510115341 | 56 | 294 | 1.7 | 5.2 | 0.00 | 0.00 | 0.00 | 82 | 1019.2 |
| 20260510114836 | 56 | 305 | 3.5 | 3.5 | 0.00 | 0.00 | 0.00 | 82 | 1019.2 |
| 20260510114334 | 55 | 324 | 1.7 | 6.1 | 0.00 | 0.00 | 0.00 | 83 | 1018.9 |
| 20260510113833 | 55 | 303 | 3.5 | 5.2 | 0.00 | 0.00 | 0.00 | 85 | 1019.0 |
| 20260510113330 | 54 | 301 | 2.6 | 6.1 | 0.00 | 0.00 | 0.00 | 86 | 1019.0 |
| 20260510112827 | 54 | 289 | 3.5 | 5.2 | 0.00 | 0.00 | 0.00 | 87 | 1019.2 |
| 20260510112324 | 53 | 315 | 1.7 | 2.6 | 0.00 | 0.00 | 0.00 | 89 | 1019.0 |
| 20260510111820 | 52 | 311 | 1.7 | 3.5 | 0.00 | 0.00 | 0.00 | 90 | 1019.0 |
| 20260510111317 | 52 | 315 | 2.6 | 2.6 | 0.00 | 0.00 | 0.00 | 90 | 1019.0 |
| 20260510110816 | 52 | 308 | 1.7 | 2.6 | 0.00 | 0.00 | 0.00 | 91 | 1018.8 |
| 20260510110314 | 51 | 311 | 0.9 | 2.6 | 0.00 | 0.00 | 0.00 | 92 | 1018.9 |
| 20260510105809 | 51 | 310 | 1.7 | 2.6 | 0.00 | 0.00 | 0.00 | 93 | 1018.7 |
| 20260510105306 | 50 | 316 | 1.7 | 2.6 | 0.00 | 0.00 | 0.00 | 94 | 1018.6 |
| 20260510104801 | 50 | 303 | 2.6 | 2.6 | 0.00 | 0.00 | 0.00 | 94 | 1018.4 |
| 20260510104259 | 50 | 312 | 3.5 | 5.2 | 0.00 | 0.00 | 0.00 | 94 | 1018.4 |
| 20260510103754 | 50 | 305 | 2.6 | 2.6 | 0.00 | 0.00 | 0.00 | 94 | 1018.3 |
| 20260510103252 | 50 | 313 | 2.6 | 2.6 | 0.00 | 0.00 | 0.00 | 94 | 1018.3 |
| 20260510102751 | 50 | 304 | 1.7 | 2.6 | 0.00 | 0.00 | 0.00 | 94 | 1018.2 |
| 20260510102247 | 49 | 306 | 1.7 | 3.5 | 0.00 | 0.00 | 0.00 | 93 | 1018.1 |
| 20260510101745 | 50 | 310 | 2.6 | 3.5 | 0.00 | 0.00 | 0.00 | 93 | 1018.0 |
| 20260510101244 | 50 | 309 | 2.6 | 2.6 | 0.00 | 0.00 | 0.00 | 92 | 1018.0 |
| 20260510100739 | 51 | 314 | 2.6 | 2.6 | 0.00 | 0.00 | 0.00 | 92 | 1018.1 |
| 20260510100238 | 51 | 296 | 2.6 | 3.5 | 0.00 | 0.00 | 0.00 | 92 | 1017.9 |
| 20260510095732 | 51 | 308 | 1.7 | 1.7 | 0.00 | 0.00 | 0.00 | 91 | 1017.7 |
| 20260510095228 | 51 | 311 | 1.7 | 2.6 | 0.00 | 0.00 | 0.00 | 91 | 1017.9 |
| 20260510094727 | 51 | 276 | 1.7 | 3.5 | 0.00 | 0.00 | 0.00 | 91 | 1017.7 |
| 20260510094222 | 51 | 291 | 0.9 | 1.7 | 0.00 | 0.00 | 0.00 | 92 | 1017.9 |
| 20260510093718 | 51 | 295 | 1.7 | 2.6 | 0.00 | 0.00 | 0.00 | 92 | 1017.6 |
| 20260510093216 | 52 | 308 | 0.9 | 2.6 | 0.00 | 0.00 | 0.00 | 91 | 1017.9 |
| 20260510092712 | 51 | 286 | 1.7 | 2.6 | 0.00 | 0.00 | 0.00 | 92 | 1017.7 |
| 20260510092208 | 51 | 307 | 1.7 | 2.6 | 0.00 | 0.00 | 0.00 | 92 | 1017.6 |
| 20260510091704 | 51 | 303 | 2.6 | 3.5 | 0.00 | 0.00 | 0.00 | 92 | 1017.6 |
| 20260510091200 | 51 | 298 | 1.7 | 2.6 | 0.00 | 0.00 | 0.00 | 92 | 1017.3 |
| 20260510090657 | 51 | 297 | 1.7 | 2.6 | 0.00 | 0.00 | 0.00 | 92 | 1017.4 |
| 20260510090154 | 51 | 289 | 1.7 | 1.7 | 0.00 | 0.00 | 0.00 | 93 | 1017.2 |
| 20260510085649 | 50 | 295 | 0.9 | 1.7 | 0.00 | 0.00 | 0.00 | 94 | 1017.4 |
| 20260510085144 | 51 | 291 | 0.0 | 0.9 | 0.00 | 0.00 | 0.00 | 93 | 1017.2 |
| 20260510084641 | 51 | 282 | 0.0 | 0.0 | 0.00 | 0.00 | 0.00 | 93 | 1017.3 |
| 20260510084137 | 51 | 282 | 0.0 | 0.9 | 0.00 | 0.00 | 0.00 | 93 | 1017.2 |
| 20260510083634 | 50 | 283 | 1.7 | 1.7 | 0.00 | 0.00 | 0.00 | 94 | 1017.1 |
| 20260510083131 | 51 | 287 | 1.7 | 1.7 | 0.00 | 0.00 | 0.00 | 93 | 1017.1 |
| 20260510082627 | 51 | 282 | 0.9 | 1.7 | 0.00 | 0.00 | 0.00 | 93 | 1017.2 |
| 20260510082123 | 51 | 285 | 1.7 | 2.6 | 0.00 | 0.00 | 0.00 | 93 | 1017.2 |
| 20260510081617 | 51 | 307 | 1.7 | 3.5 | 0.00 | 0.00 | 0.00 | 93 | 1017.1 |
| 20260510081113 | 51 | 305 | 2.6 | 3.5 | 0.00 | 0.00 | 0.00 | 93 | 1017.2 |
| 20260510080608 | 51 | 286 | 1.7 | 3.5 | 0.00 | 0.00 | 0.00 | 92 | 1017.0 |
| 20260510080105 | 51 | 301 | 2.6 | 3.5 | 0.00 | 0.00 | 0.00 | 92 | 1017.0 |
| 20260510075601 | 51 | 311 | 3.5 | 5.2 | 0.00 | 0.00 | 0.00 | 93 | 1017.0 |
| 20260510075058 | 51 | 307 | 2.6 | 3.5 | 0.00 | 0.00 | 0.00 | 93 | 1017.0 |
| 20260510074556 | 51 | 279 | 1.7 | 1.7 | 0.00 | 0.00 | 0.00 | 92 | 1016.9 |
| 20260510074051 | 52 | 296 | 1.7 | 2.6 | 0.00 | 0.00 | 0.00 | 91 | 1017.0 |
| 20260510073547 | 51 | 286 | 1.7 | 2.6 | 0.00 | 0.00 | 0.00 | 92 | 1016.7 |
| 20260510073044 | 52 | 296 | 2.6 | 3.5 | 0.00 | 0.00 | 0.00 | 91 | 1016.9 |
| 20260510072541 | 52 | 308 | 1.7 | 2.6 | 0.00 | 0.00 | 0.00 | 91 | 1017.0 |
| 20260510072036 | 52 | 298 | 2.6 | 3.5 | 0.00 | 0.00 | 0.00 | 91 | 1016.8 |
| 20260510071533 | 52 | 275 | 1.7 | 2.6 | 0.00 | 0.00 | 0.00 | 91 | 1016.8 |
| 20260510071031 | 52 | 297 | 3.5 | 3.5 | 0.00 | 0.00 | 0.00 | 92 | 1016.9 |
| 20260510070528 | 51 | 278 | 0.9 | 1.7 | 0.00 | 0.00 | 0.00 | 92 | 1017.0 |
| 20260510070025 | 52 | 277 | 0.9 | 2.6 | 0.00 | 0.00 | 0.00 | 91 | 1016.9 |
| 20260510065521 | 52 | 266 | 0.0 | 2.6 | 0.00 | 0.00 | 0.00 | 91 | 1016.7 |
| 20260510065017 | 51 | 230 | 1.7 | 5.2 | 0.00 | 0.00 | 0.00 | 93 | 1016.8 |
| 20260510064514 | 51 | 285 | 0.0 | 0.9 | 0.00 | 0.00 | 0.00 | 92 | 1017.0 |
| 20260510064011 | 51 | 275 | 0.9 | 3.5 | 0.00 | 0.00 | 0.00 | 91 | 1016.8 |
| 20260510063507 | 51 | 310 | 2.6 | 3.5 | 0.00 | 0.00 | 0.00 | 93 | 1016.8 |
| 20260510063005 | 50 | 289 | 1.7 | 2.6 | 0.00 | 0.00 | 0.00 | 94 | 1016.9 |
| 20260510062500 | 50 | 292 | 1.7 | 1.7 | 0.00 | 0.00 | 0.00 | 94 | 1016.7 |
| 20260510061955 | 50 | 293 | 1.7 | 2.6 | 0.00 | 0.00 | 0.00 | 96 | 1016.7 |
| 20260510061452 | 49 | 298 | 1.7 | 1.7 | 0.00 | 0.00 | 0.00 | 97 | 1016.7 |
| 20260510060948 | 49 | 292 | 0.0 | 0.0 | 0.00 | 0.00 | 0.00 | 98 | 1016.6 |
| 20260510060446 | 49 | 301 | 0.0 | 0.0 | 0.00 | 0.00 | 0.00 | 98 | 1016.7 |
| 20260510055942 | 49 | 301 | 0.0 | 0.0 | 0.00 | 0.00 | 0.00 | 98 | 1016.7 |
| 20260510055438 | 48 | 301 | 0.0 | 0.0 | 0.00 | 0.00 | 0.00 | 98 | 1016.7 |
| 20260510054936 | 48 | 301 | 0.0 | 0.0 | 0.00 | 0.00 | 0.00 | 98 | 1016.9 |
| 20260510054431 | 48 | 318 | 0.0 | 0.0 | 0.00 | 0.00 | 0.00 | 97 | 1016.8 |
| 20260510053926 | 48 | 318 | 0.0 | 0.0 | 0.00 | 0.00 | 0.00 | 98 | 1017.0 |
| 20260510053422 | 48 | 317 | 0.0 | 0.0 | 0.00 | 0.00 | 0.00 | 98 | 1016.9 |
| 20260510052918 | 48 | 318 | 0.0 | 0.0 | 0.00 | 0.00 | 0.00 | 97 | 1016.9 |
| 20260510052414 | 47 | 318 | 0.0 | 0.0 | 0.00 | 0.00 | 0.00 | 97 | 1017.0 |
| 20260510051911 | 48 | 318 | 0.0 | 0.0 | 0.00 | 0.00 | 0.00 | 97 | 1016.9 |
| 20260510051408 | 47 | 318 | 0.0 | 0.0 | 0.00 | 0.00 | 0.00 | 97 | 1017.0 |
| 20260510050904 | 48 | 318 | 0.0 | 0.0 | 0.00 | 0.00 | 0.00 | 96 | 1017.0 |
| 20260510050400 | 48 | 318 | 0.0 | 0.0 | 0.00 | 0.00 | 0.00 | 97 | 1016.9 |
| 20260510045857 | 48 | 317 | 0.0 | 0.0 | 0.00 | 0.00 | 0.00 | 96 | 1016.8 |
| 20260510045354 | 48 | 317 | 0.0 | 0.0 | 0.00 | 0.00 | 0.00 | 96 | 1016.9 |
| 20260510044851 | 48 | 317 | 0.0 | 0.0 | 0.00 | 0.00 | 0.00 | 95 | 1016.9 |
| 20260510044348 | 48 | 317 | 0.0 | 0.0 | 0.00 | 0.00 | 0.00 | 95 | 1016.8 |
| 20260510043844 | 48 | 317 | 0.0 | 0.0 | 0.00 | 0.00 | 0.00 | 94 | 1016.8 |
| 20260510043341 | 49 | 317 | 0.0 | 0.0 | 0.00 | 0.00 | 0.00 | 94 | 1016.9 |
| 20260510042839 | 48 | 315 | 0.0 | 0.0 | 0.00 | 0.00 | 0.00 | 95 | 1017.0 |
| 20260510042334 | 48 | 315 | 0.0 | 0.0 | 0.00 | 0.00 | 0.00 | 94 | 1016.9 |
| 20260510041831 | 49 | 315 | 0.0 | 0.0 | 0.00 | 0.00 | 0.00 | 93 | 1016.8 |
| 20260510041328 | 49 | 315 | 0.0 | 0.0 | 0.00 | 0.00 | 0.00 | 93 | 1016.8 |
| 20260510040826 | 49 | 317 | 0.0 | 0.0 | 0.00 | 0.00 | 0.00 | 92 | 1016.7 |
| 20260510040322 | 49 | 317 | 0.0 | 0.0 | 0.00 | 0.00 | 0.00 | 93 | 1016.9 |
| 20260510035818 | 49 | 301 | 0.0 | 0.0 | 0.00 | 0.00 | 0.00 | 92 | 1016.7 |
| 20260510035314 | 49 | 301 | 0.0 | 0.0 | 0.00 | 0.00 | 0.00 | 92 | 1016.9 |
| 20260510034810 | 49 | 301 | 0.0 | 0.0 | 0.00 | 0.00 | 0.00 | 92 | 1016.9 |
| 20260510034307 | 49 | 301 | 0.0 | 0.0 | 0.00 | 0.00 | 0.00 | 92 | 1016.8 |
| 20260510033804 | 49 | 301 | 0.0 | 0.0 | 0.00 | 0.00 | 0.00 | 91 | 1016.7 |
| 20260510033301 | 49 | 301 | 0.0 | 0.0 | 0.00 | 0.00 | 0.00 | 90 | 1016.8 |
| 20260510032758 | 50 | 301 | 0.0 | 0.0 | 0.00 | 0.00 | 0.00 | 87 | 1016.6 |
| 20260510032254 | 51 | 301 | 0.0 | 0.0 | 0.00 | 0.00 | 0.00 | 87 | 1016.8 |
| 20260510031750 | 51 | 301 | 0.0 | 0.0 | 0.00 | 0.00 | 0.00 | 87 | 1016.7 |
| 20260510031245 | 51 | 301 | 0.0 | 0.0 | 0.00 | 0.00 | 0.00 | 87 | 1016.8 |
| 20260510030744 | 51 | 301 | 0.0 | 0.0 | 0.00 | 0.00 | 0.00 | 87 | 1016.9 |
| 20260510030242 | 51 | 301 | 0.0 | 0.9 | 0.00 | 0.00 | 0.00 | 85 | 1016.8 |
| 20260510025739 | 51 | 301 | 0.0 | 0.0 | 0.00 | 0.00 | 0.00 | 86 | 1016.9 |
| 20260510025237 | 51 | 301 | 0.0 | 0.0 | 0.00 | 0.00 | 0.00 | 88 | 1016.8 |
| 20260510024734 | 50 | 301 | 0.0 | 0.0 | 0.00 | 0.00 | 0.00 | 87 | 1016.7 |
| 20260510024230 | 51 | 301 | 0.0 | 0.0 | 0.00 | 0.00 | 0.00 | 87 | 1016.7 |
| 20260510023726 | 51 | 301 | 0.0 | 0.0 | 0.00 | 0.00 | 0.00 | 88 | 1016.7 |
| 20260510023223 | 49 | 284 | 2.6 | 2.6 | 0.00 | 0.00 | 0.00 | 90 | 1016.7 |
| 20260510022719 | 49 | 273 | 0.0 | 0.0 | 0.00 | 0.00 | 0.00 | 89 | 1016.5 |
| 20260510022214 | 49 | 273 | 0.0 | 0.0 | 0.00 | 0.00 | 0.00 | 89 | 1016.5 |
| 20260510021709 | 49 | 273 | 0.0 | 0.0 | 0.00 | 0.00 | 0.00 | 89 | 1016.6 |
| 20260510021206 | 49 | 273 | 0.0 | 0.0 | 0.00 | 0.00 | 0.00 | 88 | 1016.3 |
| 20260510020701 | 50 | 273 | 0.0 | 0.0 | 0.00 | 0.00 | 0.00 | 88 | 1016.5 |
| 20260510020156 | 50 | 273 | 0.0 | 0.0 | 0.00 | 0.00 | 0.00 | 88 | 1016.3 |
| 20260510015653 | 50 | 273 | 0.0 | 0.0 | 0.00 | 0.00 | 0.00 | 87 | 1016.2 |
| 20260510015150 | 50 | 273 | 0.0 | 0.0 | 0.00 | 0.00 | 0.00 | 88 | 1016.0 |
| 20260510014649 | 49 | 273 | 0.0 | 0.0 | 0.00 | 0.00 | 0.00 | 88 | 1016.0 |
| 20260510014147 | 50 | 273 | 0.0 | 0.0 | 0.00 | 0.00 | 0.00 | 87 | 1015.9 |
| 20260510013642 | 50 | 273 | 0.0 | 0.0 | 0.00 | 0.00 | 0.00 | 86 | 1015.8 |
| 20260510013138 | 51 | 273 | 0.0 | 0.0 | 0.00 | 0.00 | 0.00 | 85 | 1015.6 |
| 20260510012638 | 51 | 273 | 0.0 | 0.0 | 0.00 | 0.00 | 0.00 | 84 | 1015.6 |
| 20260510012134 | 51 | 273 | 0.0 | 0.0 | 0.00 | 0.00 | 0.00 | 84 | 1015.7 |
| 20260510011634 | 52 | 273 | 0.0 | 0.0 | 0.00 | 0.00 | 0.00 | 83 | 1015.7 |
| 20260510011130 | 51 | 273 | 0.0 | 0.0 | 0.00 | 0.00 | 0.00 | 84 | 1015.4 |
| 20260510010626 | 52 | 273 | 0.0 | 0.0 | 0.00 | 0.00 | 0.00 | 81 | 1015.5 |
| 20260510010124 | 53 | 273 | 0.0 | 0.0 | 0.00 | 0.00 | 0.00 | 81 | 1015.4 |
| 20260510005619 | 54 | 273 | 0.0 | 0.0 | 0.00 | 0.00 | 0.00 | 79 | 1015.6 |
| 20260510005117 | 53 | 273 | 0.0 | 0.0 | 0.00 | 0.00 | 0.00 | 81 | 1015.4 |
| 20260510004615 | 54 | 273 | 0.0 | 0.0 | 0.00 | 0.00 | 0.00 | 78 | 1015.2 |
| 20260510004113 | 55 | 273 | 0.0 | 0.0 | 0.00 | 0.00 | 0.00 | 77 | 1015.2 |
| 20260510003609 | 56 | 273 | 0.0 | 0.0 | 0.00 | 0.00 | 0.00 | 75 | 1015.2 |
| 20260510003105 | 57 | 273 | 0.0 | 0.0 | 0.00 | 0.00 | 0.00 | 72 | 1015.3 |
| 20260510002600 | 58 | 273 | 0.0 | 0.9 | 0.00 | 0.00 | 0.00 | 71 | 1015.2 |
| 20260510002057 | 58 | 273 | 0.0 | 0.0 | 0.00 | 0.00 | 0.00 | 70 | 1015.3 |
| 20260510001555 | 59 | 273 | 0.9 | 0.9 | 0.00 | 0.00 | 0.00 | 67 | 1015.2 |
| 20260510001054 | 61 | 273 | 0.0 | 0.0 | 0.00 | 0.00 | 0.00 | 65 | 1015.1 |
| 20260510000553 | 62 | 276 | 0.9 | 1.7 | 0.00 | 0.00 | 0.00 | 62 | 1014.9 |
| 20260510000050 | 62 | 275 | 0.9 | 1.7 | 0.00 | 0.00 | 0.00 | 61 | 1014.7 |
| 20260509235547 | 63 | 292 | 1.7 | 5.2 | 0.00 | 0.00 | 0.00 | 61 | 1014.5 |
| 20260509235044 | 64 | 279 | 0.0 | 0.0 | 0.00 | 0.00 | 0.00 | 60 | 1014.4 |
| 20260509234540 | 63 | 279 | 0.0 | 0.9 | 0.00 | 0.00 | 0.00 | 60 | 1014.4 |
| 20260509234038 | 63 | 281 | 2.6 | 2.6 | 0.00 | 0.00 | 0.00 | 59 | 1014.4 |
| 20260509233535 | 63 | 276 | 1.7 | 3.5 | 0.00 | 0.00 | 0.00 | 61 | 1014.6 |
| 20260509233032 | 64 | 296 | 4.3 | 5.2 | 0.00 | 0.00 | 0.00 | 59 | 1014.3 |
| 20260509232529 | 63 | 294 | 1.7 | 5.2 | 0.00 | 0.00 | 0.00 | 60 | 1014.4 |
| 20260509232025 | 63 | 276 | 1.7 | 1.7 | 0.00 | 0.00 | 0.00 | 60 | 1014.4 |
| 20260509231522 | 62 | 264 | 1.7 | 2.6 | 0.00 | 0.00 | 0.00 | 62 | 1014.4 |
| 20260509231020 | 63 | 287 | 4.3 | 6.1 | 0.00 | 0.00 | 0.00 | 59 | 1014.4 |
| 20260509230517 | 63 | 288 | 5.2 | 7.0 | 0.00 | 0.00 | 0.00 | 59 | 1014.2 |
| 20260509230013 | 64 | 292 | 1.7 | 2.6 | 0.00 | 0.00 | 0.00 | 57 | 1014.4 |
| 20260509225509 | 64 | 284 | 1.7 | 2.6 | 0.00 | 0.00 | 0.00 | 59 | 1014.3 |
| 20260509225005 | 64 | 292 | 1.7 | 6.1 | 0.00 | 0.00 | 0.00 | 60 | 1014.2 |
| 20260509224500 | 63 | 299 | 3.5 | 6.1 | 0.00 | 0.00 | 0.00 | 58 | 1014.4 |
| 20260509223957 | 64 | 297 | 2.6 | 7.8 | 0.00 | 0.00 | 0.00 | 56 | 1014.5 |
| 20260509223454 | 65 | 307 | 2.6 | 6.1 | 0.00 | 0.00 | 0.00 | 56 | 1014.6 |
| 20260509222952 | 65 | 272 | 1.7 | 5.2 | 0.00 | 0.00 | 0.00 | 54 | 1014.5 |
| 20260509222447 | 65 | 297 | 4.3 | 9.6 | 0.00 | 0.00 | 0.00 | 55 | 1014.6 |
| 20260509221943 | 65 | 312 | 4.3 | 7.0 | 0.00 | 0.00 | 0.00 | 54 | 1014.6 |
| 20260509221440 | 65 | 286 | 3.5 | 8.7 | 0.00 | 0.00 | 0.00 | 55 | 1014.5 |
| 20260509220935 | 66 | 306 | 5.2 | 7.0 | 0.00 | 0.00 | 0.00 | 53 | 1014.7 |
| 20260509220431 | 64 | 248 | 2.6 | 7.8 | 0.00 | 0.00 | 0.00 | 55 | 1014.5 |
| 20260509215928 | 65 | 278 | 1.7 | 7.8 | 0.00 | 0.00 | 0.00 | 58 | 1014.6 |
| 20260509215423 | 66 | 289 | 6.1 | 7.8 | 0.00 | 0.00 | 0.00 | 54 | 1014.6 |
| 20260509214921 | 65 | 279 | 7.0 | 7.8 | 0.00 | 0.00 | 0.00 | 53 | 1014.5 |
| 20260509214418 | 65 | 309 | 6.1 | 7.0 | 0.00 | 0.00 | 0.00 | 55 | 1014.6 |
| 20260509213915 | 65 | 307 | 4.3 | 6.1 | 0.00 | 0.00 | 0.00 | 55 | 1014.7 |
| 20260509213416 | 65 | 299 | 2.6 | 2.6 | 0.00 | 0.00 | 0.00 | 55 | 1014.5 |
| 20260509212914 | 65 | 275 | 5.2 | 7.8 | 0.00 | 0.00 | 0.00 | 54 | 1014.4 |
| 20260509212411 | 65 | 283 | 4.3 | 8.7 | 0.00 | 0.00 | 0.00 | 55 | 1014.3 |
| 20260509211907 | 65 | 311 | 5.2 | 11.3 | 0.00 | 0.00 | 0.00 | 54 | 1014.3 |
| 20260509211403 | 64 | 284 | 6.1 | 7.0 | 0.00 | 0.00 | 0.00 | 53 | 1014.2 |
| 20260509210859 | 64 | 303 | 4.3 | 9.6 | 0.00 | 0.00 | 0.00 | 54 | 1014.5 |
| 20260509210357 | 64 | 293 | 9.6 | 12.2 | 0.00 | 0.00 | 0.00 | 53 | 1014.3 |
| 20260509205852 | 65 | 298 | 2.6 | 3.5 | 0.00 | 0.00 | 0.00 | 55 | 1014.3 |
| 20260509205346 | 65 | 295 | 3.5 | 6.1 | 0.00 | 0.00 | 0.00 | 54 | 1014.1 |
| 20260509204844 | 65 | 289 | 6.1 | 7.8 | 0.00 | 0.00 | 0.00 | 52 | 1014.2 |
| 20260509204340 | 65 | 293 | 1.7 | 8.7 | 0.00 | 0.00 | 0.00 | 52 | 1014.1 |
| 20260509203836 | 65 | 315 | 5.2 | 9.6 | 0.00 | 0.00 | 0.00 | 53 | 1014.1 |
| 20260509203333 | 65 | 297 | 9.6 | 15.6 | 0.00 | 0.00 | 0.00 | 53 | 1013.9 |
| 20260509202829 | 65 | 277 | 3.5 | 7.8 | 0.00 | 0.00 | 0.00 | 53 | 1014.0 |
| 20260509202326 | 66 | 317 | 2.6 | 3.5 | 0.00 | 0.00 | 0.00 | 54 | 1013.8 |
| 20260509201825 | 66 | 317 | 2.6 | 3.5 | 0.00 | 0.00 | 0.00 | 54 | 1013.8 |
| 20260509201322 | 65 | 254 | 4.3 | 8.7 | 0.00 | 0.00 | 0.00 | 54 | 1013.8 |
| 20260509200818 | 64 | 315 | 3.5 | 5.2 | 0.00 | 0.00 | 0.00 | 54 | 1013.5 |
| 20260509200314 | 64 | 287 | 6.1 | 9.6 | 0.00 | 0.00 | 0.00 | 52 | 1013.9 |
| 20260509195810 | 65 | 297 | 5.2 | 7.8 | 0.00 | 0.00 | 0.00 | 54 | 1013.7 |
| 20260509195306 | 65 | 292 | 5.2 | 7.8 | 0.00 | 0.00 | 0.00 | 52 | 1013.7 |
| 20260509194805 | 65 | 321 | 4.3 | 7.0 | 0.00 | 0.00 | 0.00 | 54 | 1013.7 |
| 20260509194301 | 65 | 294 | 9.6 | 13.9 | 0.00 | 0.00 | 0.00 | 51 | 1013.7 |
| 20260509193758 | 66 | 320 | 7.0 | 11.3 | 0.00 | 0.00 | 0.00 | 52 | 1013.5 |
| 20260509193258 | 66 | 253 | 2.6 | 7.0 | 0.00 | 0.00 | 0.00 | 54 | 1013.8 |
| 20260509192754 | 67 | 163 | 1.7 | 7.0 | 0.00 | 0.00 | 0.00 | 47 | 1013.5 |
| 20260509192250 | 67 | 284 | 5.2 | 8.7 | 0.00 | 0.00 | 0.00 | 47 | 1013.9 |
| 20260509191745 | 65 | 316 | 7.0 | 9.6 | 0.00 | 0.00 | 0.00 | 53 | 1013.7 |
| 20260509191242 | 65 | 277 | 7.0 | 8.7 | 0.00 | 0.00 | 0.00 | 50 | 1013.5 |
| 20260509190738 | 65 | 315 | 7.8 | 13.9 | 0.00 | 0.00 | 0.00 | 49 | 1013.4 |
| 20260509190235 | 65 | 297 | 7.0 | 8.7 | 0.00 | 0.00 | 0.00 | 49 | 1013.7 |
| 20260509185732 | 65 | 312 | 4.3 | 7.0 | 0.00 | 0.00 | 0.00 | 51 | 1013.4 |
| 20260509185228 | 65 | 263 | 1.7 | 6.1 | 0.00 | 0.00 | 0.00 | 48 | 1013.8 |
| 20260509184726 | 65 | 290 | 5.2 | 7.8 | 0.00 | 0.00 | 0.00 | 47 | 1013.5 |
| 20260509184224 | 66 | 293 | 5.2 | 11.3 | 0.00 | 0.00 | 0.00 | 51 | 1013.7 |
| 20260509183720 | 67 | 303 | 7.8 | 9.6 | 0.00 | 0.00 | 0.00 | 47 | 1013.7 |
| 20260509183215 | 68 | 278 | 6.1 | 7.8 | 0.00 | 0.00 | 0.00 | 44 | 1013.8 |
| 20260509182711 | 68 | 309 | 2.6 | 7.8 | 0.00 | 0.00 | 0.00 | 47 | 1013.5 |
| 20260509182208 | 67 | 280 | 5.2 | 12.2 | 0.00 | 0.00 | 0.00 | 50 | 1013.4 |
| 20260509181706 | 67 | 225 | 3.5 | 7.8 | 0.00 | 0.00 | 0.00 | 46 | 1013.5 |
| 20260509181203 | 66 | 279 | 5.2 | 8.7 | 0.00 | 0.00 | 0.00 | 51 | 1013.7 |
| 20260509180700 | 66 | 303 | 3.5 | 6.1 | 0.00 | 0.00 | 0.00 | 52 | 1013.4 |
| 20260509180156 | 67 | 160 | 2.6 | 3.5 | 0.00 | 0.00 | 0.00 | 47 | 1013.5 |
| 20260509175652 | 66 | 242 | 1.7 | 2.6 | 0.00 | 0.00 | 0.00 | 50 | 1013.5 |
| 20260509175149 | 65 | 282 | 1.7 | 7.0 | 0.00 | 0.00 | 0.00 | 52 | 1013.7 |
| 20260509174645 | 65 | 270 | 3.5 | 7.0 | 0.00 | 0.00 | 0.00 | 50 | 1013.8 |
| 20260509174139 | 64 | 292 | 6.1 | 9.6 | 0.00 | 0.00 | 0.00 | 51 | 1013.9 |
| 20260509173636 | 65 | 311 | 5.2 | 9.6 | 0.00 | 0.00 | 0.00 | 49 | 1013.8 |
| 20260509173131 | 65 | 242 | 0.0 | 2.6 | 0.00 | 0.00 | 0.00 | 52 | 1013.8 |
| 20260509172628 | 66 | 257 | 5.2 | 7.8 | 0.00 | 0.00 | 0.00 | 48 | 1013.5 |
| 20260509172124 | 66 | 240 | 4.3 | 7.8 | 0.00 | 0.00 | 0.00 | 49 | 1013.8 |
| 20260509171620 | 65 | 291 | 3.5 | 8.7 | 0.00 | 0.00 | 0.00 | 49 | 1014.0 |
| 20260509171117 | 64 | 295 | 4.3 | 11.3 | 0.00 | 0.00 | 0.00 | 51 | 1014.0 |
| 20260509170613 | 65 | 130 | 0.9 | 5.2 | 0.00 | 0.00 | 0.00 | 50 | 1014.2 |
| 20260509170109 | 65 | 230 | 5.2 | 13.9 | 0.00 | 0.00 | 0.00 | 51 | 1014.3 |
| 20260509165608 | 65 | 289 | 3.5 | 6.1 | 0.00 | 0.00 | 0.00 | 49 | 1014.1 |
| 20260509165103 | 67 | 249 | 8.7 | 9.6 | 0.00 | 0.00 | 0.00 | 51 | 1014.1 |